Theta_e
339 341 342 342 340 342 343 342 342 342 340 342 346 349 356 355 354 352 351 350 350 351 350 349 349 348 348 349 350 352 353 355 357 357 356 355 353 356 355 355 353 351 349 351
340 340 340 340 342 341 341 342 342 341 340 343 344 347 347 357 355 354 352 350 350 351 351 350 350 350 349 350 351 353 355 356 358 356 357 356 355 351 354 354 356 356 351 355
339 340 338 341 341 341 342 342 342 341 341 341 346 350 344 348 356 354 353 351 348 351 352 352 350 350 351 351 353 355 358 360 358 356 358 357 356 356 355 357 357 357 352 355
336 337 339 339 341 340 341 340 340 340 342 345 346 348 351 353 357 356 355 354 352 350 352 351 354 352 348 353 355 357 360 361 359 358 357 358 357 356 357 357 357 358 359 357
332 335 337 340 339 339 341 340 339 340 341 341 342 345 349 347 356 358 356 354 353 352 352 352 354 345 350 352 355 359 361 360 358 358 358 358 357 356 355 357 359 360 359 358
330 332 334 337 337 338 339 339 339 338 340 343 344 347 348 350 351 352 355 354 353 352 353 354 351 349 350 353 356 358 359 356 356 357 352 350 354 357 357 358 352 353 351 352
328 329 332 333 334 335 338 338 340 340 341 344 345 348 343 346 348 349 350 355 354 353 355 357 356 354 354 355 356 357 357 357 356 349 347 347 354 354 355 354 352 352 349 348
328 327 329 331 332 334 336 335 336 341 340 352 351 352 345 347 351 350 350 353 353 354 356 358 357 354 353 355 356 356 356 353 351 352 351 349 349 350 349 349 349 348 347 345
327 327 330 330 330 330 331 333 331 332 335 341 349 344 344 349 354 354 354 352 355 355 358 358 354 353 352 353 353 354 354 352 351 351 350 349 347 347 346 345 344 342 339 336
327 327 329 329 330 330 329 332 332 332 337 342 345 341 344 347 353 357 355 356 358 358 358 356 354 354 353 355 354 353 352 350 349 349 349 347 345 343 341 339 337 335 334 333
326 327 329 329 329 329 329 330 331 333 334 337 339 343 348 351 352 357 357 358 359 359 357 355 355 354 354 354 353 350 349 347 346 344 342 341 339 337 335 333 332 331 331 331
326 326 327 329 329 329 329 329 329 331 334 338 341 347 342 344 347 355 357 359 359 358 356 356 356 353 352 352 349 347 346 344 342 341 339 337 335 334 332 331 330 329 330 330
325 325 325 327 329 329 329 330 330 330 333 336 339 342 346 345 350 356 360 359 359 357 356 356 353 352 352 349 348 346 344 342 340 338 336 333 331 330 330 329 329 329 328 328
326 325 325 326 328 329 329 329 330 330 333 335 335 344 351 344 351 359 360 360 359 357 355 353 353 354 350 347 346 344 342 340 337 335 333 331 330 329 328 328 327 326 326 325
324 325 326 326 327 328 328 328 328 329 329 331 332 333 335 345 351 359 359 362 360 358 355 355 354 351 348 345 344 343 339 337 335 333 331 330 329 328 327 325 324 324 323 322
326 325 326 326 326 326 326 327 328 328 328 330 331 333 335 346 353 358 360 361 359 358 355 355 353 350 347 345 343 340 337 335 332 330 330 329 327 326 325 324 322 321 319 319
332 328 327 327 328 327 326 327 327 328 330 330 332 332 335 338 354 359 361 360 359 358 355 355 352 349 346 344 341 338 335 332 330 329 328 327 325 325 323 320 319 319 319 318
336 335 331 329 330 329 328 329 328 327 328 330 330 333 340 341 350 357 360 359 357 356 356 354 351 348 346 341 338 335 332 330 328 327 326 324 324 323 321 320 319 319 319 318
334 336 336 335 333 330 329 330 330 329 328 330 331 333 344 347 354 358 357 356 355 355 354 351 349 346 341 338 335 333 330 328 327 326 324 323 323 323 320 320 320 319 319 319
332 334 335 337 337 335 332 330 332 331 330 331 332 336 344 351 359 359 356 353 354 353 351 350 346 342 338 336 334 331 329 327 326 324 322 321 322 321 320 320 321 321 321 320
335 335 336 335 337 338 334 333 332 333 332 332 334 336 345 352 349 355 353 353 353 351 350 346 342 340 337 334 333 331 328 326 324 323 323 321 320 320 321 321 321 321 321 321
337 335 335 334 336 336 336 336 337 335 334 334 339 337 343 349 349 353 353 354 353 351 347 343 341 338 335 333 332 328 326 324 324 323 323 321 321 321 321 321 321 321 322 323
344 338 335 336 334 339 337 337 337 342 346 346 343 337 348 349 353 352 354 354 352 349 344 342 340 337 334 332 329 326 325 323 323 323 322 322 321 319 319 320 321 322 321 319
337 338 341 336 335 336 335 336 339 343 342 344 346 342 348 351 351 351 353 353 351 346 344 341 338 335 332 329 327 326 324 322 322 322 322 321 320 320 319 320 319 319 318 318
340 342 343 337 335 334 335 345 347 345 343 343 346 347 349 351 352 353 354 352 349 345 341 339 336 334 330 327 326 324 323 322 322 322 321 320 318 318 319 319 318 316 317 314
340 339 341 340 350 352 350 347 345 345 345 344 347 349 351 351 352 352 352 348 345 343 339 337 336 332 328 326 324 322 322 321 321 320 319 318 317 318 318 319 319 316 314 312
Wind_Speed
18 16 16 20 14 10 6 8 2 5 3 8 7 8 18 17 16 15 15 16 15 15 14 17 16 15 15 12 14 14 12 10 10 8 8 8 10 7 7 5 9 9 11 12
20 19 19 16 4 6 11 8 10 5 4 7 9 7 11 20 19 16 15 15 16 15 16 15 15 17 15 16 14 14 13 14 13 10 8 7 7 6 6 5 5 9 10 12
23 17 19 16 8 12 13 13 4 6 10 18 12 7 11 13 17 17 16 14 15 16 17 13 7 6 10 18 18 16 15 15 14 12 10 8 6 6 3 4 4 7 9 10
23 20 18 19 15 15 17 11 3 11 13 4 23 4 10 13 17 17 17 16 15 16 16 15 10 11 12 9 11 17 18 18 16 13 11 11 7 7 5 4 1 3 2 4
24 20 22 17 17 17 16 3 8 12 14 18 14 7 11 13 18 17 15 17 16 17 13 19 20 23 16 10 12 14 14 16 16 12 4 6 4 4 9 5 3 2 2 2
19 15 23 17 19 19 14 15 9 14 15 14 7 8 14 7 6 11 16 15 16 19 14 16 24 22 13 11 12 15 14 12 17 16 15 7 7 4 6 5 2 3 1 2
19 19 13 16 20 22 21 15 12 14 14 4 12 14 10 12 9 6 5 15 16 17 18 18 14 16 13 13 14 15 14 11 10 6 11 15 7 3 1 0 4 3 3 5
19 18 19 18 20 17 18 18 14 18 17 7 11 10 5 12 11 8 7 10 14 16 17 16 14 15 15 13 14 13 13 9 6 6 6 7 5 2 4 5 5 4 4 5
18 20 18 19 17 21 20 17 21 25 26 8 13 10 26 15 14 8 12 11 13 14 17 17 16 16 13 13 14 13 12 10 8 7 7 7 6 5 6 6 5 4 6 7
21 13 17 17 15 18 20 15 12 14 22 18 20 7 2 14 15 12 13 15 14 15 16 15 13 16 14 15 13 13 13 11 11 10 9 8 7 8 6 6 7 7 8 10
21 12 17 15 17 20 16 18 15 20 15 16 13 6 10 16 13 15 15 15 16 16 15 16 15 15 12 13 19 15 16 14 13 11 9 8 7 7 6 6 7 8 9 9
19 13 14 16 16 18 24 21 22 15 17 14 14 2 18 23 21 14 17 16 16 16 16 15 15 18 15 16 15 18 17 14 13 10 9 8 7 5 5 5 5 6 7 7
16 13 15 18 18 20 12 19 21 23 18 17 14 5 8 7 14 14 17 17 16 16 17 16 14 16 18 17 18 16 14 13 12 10 9 7 6 6 6 5 6 7 8 8
9 17 15 16 18 15 20 21 17 18 15 15 16 11 15 10 15 15 16 18 17 16 16 16 15 15 20 17 17 16 14 13 11 9 8 7 7 6 6 6 7 9 10 10
16 17 17 18 20 14 20 20 21 24 22 20 17 16 12 16 17 18 19 18 19 18 18 17 16 15 21 20 18 16 14 12 11 10 9 8 7 7 8 9 11 11 11 10
16 16 14 20 14 19 13 17 18 23 23 21 21 20 17 14 16 16 19 20 20 19 18 18 18 19 21 21 19 17 14 12 11 10 10 9 9 10 9 9 9 10 10 10
12 14 15 15 17 17 21 22 19 20 21 17 19 19 13 10 18 18 19 19 20 20 20 20 19 20 22 21 19 17 14 12 12 12 11 10 11 11 10 10 10 9 9 9
12 10 10 13 14 19 19 17 18 21 20 19 19 18 3 5 12 15 18 20 20 20 21 20 20 22 22 22 20 17 14 13 12 12 11 10 11 10 10 9 8 7 5 5
14 11 9 11 13 16 15 17 14 17 18 18 19 17 10 6 11 14 18 20 19 21 20 23 24 23 23 22 20 17 15 13 12 11 10 10 10 9 10 8 6 4 3 2
19 15 10 12 13 15 16 18 13 15 16 18 19 16 12 14 12 11 19 19 21 23 25 24 25 25 23 21 19 17 15 13 12 11 10 9 10 10 9 7 5 3 3 2
12 13 14 13 12 13 14 8 17 15 11 18 22 15 16 16 14 20 21 20 22 25 27 26 26 24 22 21 18 16 15 13 13 12 11 11 11 10 8 6 4 2 2 1
16 16 13 13 17 18 6 8 7 4 11 10 4 10 13 13 9 25 23 23 22 20 27 27 25 24 22 19 17 16 15 15 14 13 12 11 10 11 9 6 4 3 3 6
1 6 11 4 6 15 8 9 10 11 11 13 13 5 13 14 16 23 23 23 21 25 27 27 25 24 21 18 16 16 16 16 15 14 12 11 9 7 6 5 4 8 6 4
9 23 20 3 11 3 22 13 13 17 12 9 12 8 13 16 22 22 22 21 20 25 25 25 26 23 20 17 16 16 17 16 16 14 12 10 9 7 6 8 5 1 2 6
11 9 16 12 12 15 19 10 12 14 14 9 8 6 14 19 21 22 20 21 19 26 25 25 23 22 20 18 17 18 18 17 15 13 12 11 10 9 7 2 2 2 4 7
15 12 9 11 11 8 11 11 13 13 13 11 8 13 15 21 22 23 20 21 20 21 25 23 22 21 20 18 17 18 18 17 14 12 12 11 11 9 5 3 6 9 5 3
Wind_Direction
211 232 236 242 228 4 309 335 49 96 113 277 236 234 163 189 200 192 188 173 178 183 173 169 182 182 182 195 180 184 193 174 194 204 205 204 212 230 239 261 254 256 259 273
232 226 243 250 83 250 253 247 240 216 210 262 263 8 190 177 205 200 196 181 178 183 154 169 180 176 193 184 186 184 187 186 192 195 205 203 199 229 228 267 252 264 280 275
230 211 236 258 195 243 244 252 298 322 300 257 316 80 268 278 194 205 199 196 184 182 169 139 191 167 256 179 182 182 186 183 188 188 186 194 194 209 232 230 255 278 284 279
234 238 236 213 234 234 258 232 204 266 280 266 214 247 165 264 200 201 197 191 193 186 169 145 142 108 224 234 182 177 182 181 180 186 188 204 217 203 159 194 220 323 274 283
234 227 240 235 230 237 254 146 287 287 284 282 294 318 181 195 182 187 204 202 194 173 192 163 139 179 213 192 189 175 176 177 172 166 184 192 194 160 150 161 150 143 290 308
250 231 237 222 239 242 251 260 262 258 260 266 57 292 138 135 140 156 182 204 195 169 183 138 157 177 192 149 161 162 158 171 159 166 135 333 283 198 213 142 171 138 28 44
219 238 236 247 234 239 236 235 245 240 237 225 356 315 119 143 114 130 186 178 188 177 163 147 141 165 155 157 158 153 151 154 145 154 145 187 223 216 353 132 94 99 88 10
217 217 210 214 237 236 213 237 243 251 255 51 43 264 118 106 109 126 145 165 178 173 156 151 159 161 158 150 149 144 152 150 166 185 190 154 176 124 97 76 81 49 39 30
227 225 200 211 217 236 235 218 245 258 268 213 172 200 273 140 126 137 148 159 159 161 155 159 167 157 152 140 143 143 142 137 146 151 142 143 139 112 89 67 57 33 25 18
256 271 203 190 229 229 248 261 229 247 262 272 262 214 306 175 139 147 147 149 148 155 152 158 163 143 163 148 130 132 137 135 133 129 125 110 104 89 79 64 51 40 29 22
246 238 242 185 206 230 218 239 249 269 235 260 264 216 98 56 281 159 154 151 155 155 158 157 149 152 151 147 128 133 131 135 132 123 116 107 95 85 74 61 42 37 30 21
233 248 226 206 231 218 249 218 234 244 252 259 284 177 215 186 208 155 148 149 151 156 153 149 140 147 148 137 138 139 143 139 130 129 122 114 108 100 84 69 56 42 39 32
218 231 252 236 205 222 230 254 221 242 249 254 256 262 111 106 126 150 143 151 153 153 150 137 146 149 139 140 140 144 144 139 138 137 126 115 106 95 79 66 57 50 43 38
291 243 230 245 226 213 208 234 253 263 258 243 247 196 162 172 153 154 152 151 157 157 148 149 147 143 137 151 144 146 140 139 131 117 112 108 94 83 78 75 69 64 55 50
237 250 246 256 268 253 240 214 227 243 250 259 263 256 248 187 176 167 157 155 164 157 163 156 146 156 144 144 148 146 142 134 129 128 124 109 101 95 89 84 76 71 65 56
221 246 249 249 251 254 250 253 244 223 241 249 262 272 282 96 124 164 164 164 172 165 159 157 149 147 146 149 152 144 141 139 136 128 121 121 119 117 106 93 85 82 77 66
224 228 247 244 245 244 243 239 239 250 246 229 246 250 265 238 159 175 167 169 174 164 165 153 158 155 151 153 148 147 143 139 134 130 131 128 125 116 105 101 95 88 77 67
249 259 257 249 241 243 250 243 223 249 244 241 246 256 272 238 146 168 166 173 173 162 160 157 159 154 155 149 147 143 140 136 134 136 135 134 132 123 117 111 102 97 91 81
230 248 246 253 238 254 242 247 244 226 234 242 242 239 136 164 136 159 172 175 168 161 158 160 156 153 151 144 146 142 142 142 141 141 140 142 142 134 134 135 134 135 129 134
229 209 254 260 276 251 243 246 207 232 252 245 234 238 154 151 187 174 172 166 160 157 159 156 151 149 143 146 147 146 145 145 146 142 140 142 145 148 148 149 159 166 223 161
202 244 218 228 249 260 277 299 230 202 246 220 230 212 162 185 218 147 163 158 155 156 154 150 150 148 150 151 150 150 149 149 146 144 143 144 148 151 156 166 175 183 260 336
234 202 224 235 245 250 140 329 258 240 249 270 30 241 167 187 228 149 155 151 154 154 147 152 152 150 153 154 154 151 149 146 148 149 149 154 163 187 163 175 181 200 255 231
37 243 243 300 212 341 333 283 306 31 352 348 348 288 137 167 145 152 152 151 153 154 155 157 152 150 151 155 156 151 147 152 153 154 158 168 174 176 169 181 195 230 213 300
206 187 249 272 260 216 299 328 348 348 311 322 314 285 156 162 157 156 150 150 153 153 161 154 152 152 149 151 152 150 153 156 158 162 170 172 182 184 187 200 190 266 351 341
298 48 297 256 258 268 268 9 5 335 307 298 278 191 177 153 154 153 152 151 153 159 157 153 158 152 150 152 154 157 158 163 167 171 179 182 169 192 165 215 98 12 36 339
286 272 226 268 57 1 352 347 329 322 310 266 209 165 159 157 154 154 147 146 147 157 151 158 155 151 153 156 159 158 162 169 169 174 181 187 160 183 186 208 201 197 188 147